Regional Weather Roundup
Issued by NWS

Home | Current Version | Previous Version | Graphics & Text | Print | Product List | Glossary On
Versions: 1 2 3 4 5 6 7 8 9 10 11 12 13 14 15 16 17 18 19 20 21 22 23 24 25 26 27 28 29 30 31 32 33 34 35 36 37 38 39 40 41 42 43 44 45 46 47 48 49 50
000
ASUS43 KLOT 310608
RWRIL

ILLINOIS REGIONAL WEATHER ROUNDUP
NATIONAL WEATHER SERVICE CHICAGO/ROMEOVILLE IL
100 AM CDT TUE MAY 31 2016

NOTE: "FAIR" INDICATES FEW OR NO CLOUDS BELOW 12,000 FEET WITH NO
SIGNIFICANT WEATHER AND/OR OBSTRUCTIONS TO VISIBILITY.

* THESE STATIONS ARE NOT UNDER NWS QUALITY CONTROL. THEY ALSO MAY NOT
  REPORT WEATHER SUCH AS PRECIPITATION OR FOG.

ILZ001-002-007-009-015-016-024-310700-
NORTHWEST ILLINOIS

CITY           SKY/WX    TMP DP  RH WIND       PRES   REMARKS
MOLINE         CLEAR     70  62  76 CALM      29.96S
6HR MIN TEMP:  67; 6HR MAX TEMP:  85;

STERLING*      CLOUDY    69  59  70 CALM      29.97S
SAVANNA*       PTCLDY    71  58  64 CALM      29.96S
$$

ILZ003-004-008-010-011-017-018-310700-
NORTH CENTRAL ILLINOIS

CITY           SKY/WX    TMP DP  RH WIND       PRES   REMARKS
ROCKFORD       PTCLDY    67  55  65 SE5       30.00S
6HR MIN TEMP:  67; 6HR MAX TEMP:  84;

FREEPORT*      CLOUDY    65  54  65 CALM      29.99S
ROCHELLE*      PTCLDY    68  58  68 SE6       29.99S
DE KALB*       PTCLDY    66  57  73 E7        30.00S
$$

ILZ005-006-012>014-019>023-310700-
NORTHEAST ILLINOIS

CITY           SKY/WX    TMP DP  RH WIND       PRES   REMARKS
CHICAGO-OHARE  CLOUDY    68  55  63 E5        29.99S
6HR MIN TEMP:  68; 6HR MAX TEMP:  81;

CHICAGO-MIDWAY CLOUDY    70  54  56 E9        29.99S
6HR MIN TEMP:  70; 6HR MAX TEMP:  80;

AURORA         PTCLDY    68  57  68 NE3       29.99S
6HR MIN TEMP:  68; 6HR MAX TEMP:  86;

LANSING*       CLEAR     68  56  66 NE3       29.99S
JOLIET*        CLEAR     69  58  67 E3        29.99R
WAUKEGAN       PTCLDY    58  57  97 CALM      30.00S
6HR MIN TEMP:  58; 6HR MAX TEMP:  71;

DUPAGE AIRPORT CLOUDY    67  54  63 NE6       29.99S
6HR MIN TEMP:  67; 6HR MAX TEMP:  81;

KANKAKEE*      MOCLDY    68  60  75 CALM      29.99S
WHEELING       CLOUDY    64  57  78 CALM      30.01S
6HR MIN TEMP:  64; 6HR MAX TEMP:  78;

MORRIS*        MOCLDY    70  58  65 E5        29.97S
ROMEOVILLE*    MOCLDY    68  54  61 E7        29.99R
NORTHERLY ISL    N/A     63  55  75 N5          N/A
NORTHERLY ISL    N/A     63  55  75 N5          N/A
$$

LMZ740>746-310700-
SOUTHERN LAKE MICHIGAN

STATION/POSITION SKY/WX   TEMP    WIND        PRES    VSBY  WAVE
                          AIR SEA DIR/SP/G                  HT/PER
                          (F)     (DEG/KT/KT) (MB)    (MI)  (FT/S)
SOUTHERN BUOY              61 57  130/  4/  4 1015.5F         0
WILMETTE HARBOR            59 58  320/  2/  4   N/A           0
HARRISON CRIB              64      40/  4/  4   N/A
BURNHAM HARBOR             63     360/  4/  6   N/A
CALUMET HARBOR             64      20/  4/  6 1015.2R
BURNS HARBOR               64      80/  8/  9 1016.3R
MICHIGAN CITY              65      40/  6/  7   N/A
MICHIGAN CITY 6N           64 62   60/  6/  6   N/A           1/ 2
ST. JOSEPH                 68 65   40/  6/  8   N/A           1
$$

ILZ025>027-034>036-040-047-049-050-058-095>099-310700-
WEST-CENTRAL ILLINOIS

CITY           SKY/WX    TMP DP  RH WIND       PRES   REMARKS
QUINCY         PTCLDY    67  61  81 CALM      29.98S
GALESBURG*     MOCLDY    67  64  88 S5        29.99S
MACOMB*        CLOUDY    69  64  83 W6        30.01R
JACKSONVILLE*  PTCLDY    70  60  69 W6        29.98R
PITTSFIELD*    CLOUDY    71  61  71 CALM      30.00S
$$

ILZ028>032-037-038-041>044-048-051>054-059>061-310700-
CENTRAL ILLINOIS

CITY           SKY/WX    TMP DP  RH WIND       PRES   REMARKS
PONTIAC        CLEAR     71  63  75 W7        29.98S
BLOOMINGTON    CLEAR     72  61  68 W7        29.99F
DECATUR        CLOUDY    68  60  75 CALM      29.97S
PEORIA         CLOUDY    68  62  81 CALM      29.97S
6HR MIN TEMP:  68; 6HR MAX TEMP:  83;

LACON*         CLEAR     68  63  84 CALM      29.97S
LINCOLN*       CLEAR     70  61  74 CALM      29.97S
SPRINGFIELD    MOCLDY    69  60  73 W6        29.98R
6HR MIN TEMP:  67; 6HR MAX TEMP:  80;

TAYLORVILLE    CLOUDY    64  60  87 CALM      29.97S
6HR MIN TEMP:  64; 6HR MAX TEMP:  75;

$$

ILZ033-039-045-046-055>057-062-063-310700-
EAST-CENTRAL ILLINOIS

CITY           SKY/WX    TMP DP  RH WIND       PRES   REMARKS
CHAMPAIGN      PTCLDY    67  59  75 CALM      29.98S
RANTOUL*       CLEAR     70  60  70 CALM      29.98S
MATTOON        CLOUDY    70  61  73 CALM      29.97F
PARIS*         MOCLDY    66  63  90 CALM      29.99S
$$

ILZ079-100>102-310700-
SOUTHWEST ILLINOIS

CITY           SKY/WX    TMP DP  RH WIND       PRES   REMARKS
ALTON          CLOUDY    69  61  73 CALM      29.98S
BELLEVILLE     CLEAR     72  64  78 SW1       29.96S
CAHOKIA*       CLOUDY    70  63  78 CALM      29.97F
SPARTA*        CLOUDY    71  65  81 CALM      29.99S
$$

ILZ064>066-069>071-074>076-080>082-084>086-088>090-092>094-310700-
SOUTH-CENTRAL ILLINOIS

CITY           SKY/WX    TMP DP  RH WIND       PRES   REMARKS
CARBONDALE     PTCLDY    68  65  90 CALM      29.96F
6HR MIN TEMP:  68; 6HR MAX TEMP:  80;

CAIRO*         PTCLDY    68  68  99 CALM      29.95F
EFFINGHAM*     MOCLDY    69  68  98 CALM      29.98F
MARION         CLOUDY    68  68 100 CALM      29.97F
MT. VERNON     PTCLDY    66  61  82 CALM      29.97F
CENTRALIA*     CLOUDY    70  70 100 CALM      29.96S
SALEM*         CLOUDY    72  68  88 CALM      29.97S
METROPOLIS*    CLOUDY    68  68 100 CALM      29.97S
$$

ILZ067-068-072-073-078-083-087-091-310700-
SOUTHEAST ILLINOIS

CITY           SKY/WX    TMP DP  RH WIND       PRES   REMARKS
LAWRENCEVILLE  CLOUDY    69  64  84 CALM      29.97F
FLORA*         CLOUDY    71  67  88 CALM      29.97F
FAIRFIELD*     MOCLDY    68  65  93 CALM      29.96S
HARRISBURG*    PTCLDY    69  67  96 CALM      29.97S
ROBINSON*      CLOUDY    65  64  94 CALM      29.97F
CARMI*         MOCLDY    68  67  95 CALM      29.96F
$$

ABBREVIATIONS USED IN REMARKS
   TC - TEMPERATURE IN CELSIUS
  WCI - WIND CHILL INDEX
   HX - HEAT INDEX
  VSB - VISIBILITY
$$




USA.gov is the U.S. government's official web portal to all federal, state and local government web resources and services.